Radiation Dose at Monitoring Post of Fukushima Daini Nuclear Power Station
Date,Time,MP-1(microSv/h),MP-2(microSv/h),MP-3(microSv/h),MP-4(microSv/h),MP-5(microSv/h),MP-6(microSv/h),MP-7(microSv/h),Wind Direction,Wind Velocity(m/s),Rain
2024/05/27,00:00,0.148,0.131,0.212,0.199,0.207,0.116,0.075,south,6.2,No
2024/05/27,00:10,0.148,0.132,0.213,0.201,0.208,0.117,0.075,south,7.1,No
2024/05/27,00:20,0.149,0.131,0.215,0.200,0.207,0.116,0.076,south,7.3,No
2024/05/27,00:30,0.148,0.130,0.213,0.200,0.207,0.116,0.074,south-southeast,6.6,No
2024/05/27,00:40,0.149,0.131,0.213,0.199,0.207,0.116,0.075,south,7.0,No
2024/05/27,00:50,0.147,0.131,0.214,0.201,0.208,0.116,0.074,south,6.0,No
2024/05/27,01:00,0.148,0.131,0.214,0.200,0.206,0.117,0.075,south,5.7,No
2024/05/27,01:10,0.147,0.131,0.213,0.200,0.208,0.116,0.075,south,7.8,No
2024/05/27,01:20,0.148,0.131,0.213,0.200,0.206,0.117,0.075,south,7.1,No
2024/05/27,01:30,0.148,0.130,0.214,0.200,0.208,0.116,0.075,south,8.4,No
2024/05/27,01:40,0.148,0.131,0.213,0.200,0.207,0.117,0.075,south,8.1,No
2024/05/27,01:50,0.148,0.131,0.215,0.200,0.208,0.117,0.075,south,9.2,No
2024/05/27,02:00,0.148,0.131,0.213,0.201,0.206,0.117,0.076,south,10.0,No
2024/05/27,02:10,0.149,0.131,0.215,0.200,0.208,0.117,0.075,south-southwest,10.1,No
2024/05/27,02:20,0.149,0.131,0.212,0.201,0.207,0.116,0.076,south,10.3,No
2024/05/27,02:30,0.149,0.130,0.213,0.200,0.208,0.117,0.075,south-southwest,13.3,No
2024/05/27,02:40,0.148,0.131,0.213,0.201,0.207,0.117,0.075,south,9.2,Yes
2024/05/27,02:50,0.149,0.131,0.215,0.200,0.206,0.116,0.075,south,8.9,No
2024/05/27,03:00,0.148,0.131,0.213,0.202,0.208,0.117,0.075,south,9.8,No
2024/05/27,03:10,0.148,0.130,0.214,0.200,0.207,0.117,0.076,south,10.4,No
2024/05/27,03:20,0.147,0.131,0.213,0.201,0.208,0.117,0.075,south,10.1,No
2024/05/27,03:30,0.149,0.131,0.214,0.199,0.205,0.116,0.076,south,10.0,No
2024/05/27,03:40,0.148,0.131,0.214,0.201,0.207,0.116,0.075,south,10.4,No
2024/05/27,03:50,0.148,0.131,0.214,0.200,0.206,0.116,0.076,south,9.5,No
2024/05/27,04:00,0.149,0.131,0.213,0.199,0.209,0.117,0.075,south,8.5,No
2024/05/27,04:10,0.148,0.131,0.214,0.200,0.207,0.117,0.076,south,9.8,No
2024/05/27,04:20,0.149,0.131,0.214,0.199,0.208,0.117,0.075,south,9.8,No
2024/05/27,04:30,0.148,0.130,0.214,0.201,0.206,0.117,0.075,south,8.4,No
2024/05/27,04:40,0.148,0.130,0.213,0.200,0.207,0.116,0.075,south,8.1,No
2024/05/27,04:50,0.148,0.131,0.214,0.201,0.208,0.117,0.075,south,8.4,No
2024/05/27,05:00,0.148,0.130,0.213,0.198,0.207,0.117,0.074,south-southeast,8.6,No
2024/05/27,05:10,0.149,0.131,0.214,0.201,0.209,0.117,0.076,south-southeast,8.3,No
2024/05/27,05:20,0.149,0.130,0.213,0.200,0.205,0.117,0.075,south-southeast,8.3,No
2024/05/27,05:30,0.150,0.131,0.212,0.201,0.208,0.116,0.075,south-southeast,6.7,No
2024/05/27,05:40,0.148,0.131,0.213,0.200,0.206,0.117,0.075,south,7.3,No
2024/05/27,05:50,0.148,0.130,0.213,0.200,0.207,0.116,0.075,south-southeast,6.0,No
2024/05/27,06:00,0.148,0.131,0.213,0.200,0.208,0.117,0.076,south-southeast,6.3,No
2024/05/27,06:10,0.148,0.130,0.212,0.200,0.206,0.116,0.075,south-southeast,8.1,No
2024/05/27,06:20,0.148,0.131,0.214,0.203,0.208,0.117,0.075,south,8.6,No
2024/05/27,06:30,0.148,0.131,0.213,0.200,0.207,0.118,0.076,south,8.3,No
2024/05/27,06:40,0.148,0.131,0.213,0.200,0.208,0.117,0.076,south,8.1,No
2024/05/27,06:50,0.147,0.130,0.213,0.200,0.207,0.118,0.075,south,7.8,No
2024/05/27,07:00,0.148,0.131,0.212,0.198,0.206,0.117,0.075,south,8.4,No
2024/05/27,07:10,0.148,0.130,0.214,0.201,0.207,0.116,0.075,south,8.4,No
2024/05/27,07:20,0.147,0.130,0.213,0.201,0.208,0.117,0.076,south,8.8,No
2024/05/27,07:30,0.148,0.131,0.212,0.199,0.206,0.117,0.075,south,8.1,No
2024/05/27,07:40,0.148,0.130,0.214,0.200,0.207,0.116,0.075,south-southwest,8.7,No
2024/05/27,07:50,0.147,0.130,0.213,0.199,0.207,0.117,0.076,south,8.1,No
2024/05/27,08:00,0.149,0.131,0.212,0.198,0.206,0.116,0.075,south,7.9,No
2024/05/27,08:10,0.148,0.130,0.213,0.201,0.209,0.116,0.075,south,8.5,No
2024/05/27,08:20,0.147,0.131,0.213,0.199,0.207,0.117,0.076,south,8.1,No
2024/05/27,08:30,0.148,0.131,0.215,0.199,0.206,0.116,0.075,south-southwest,7.1,No
2024/05/27,08:40,0.148,0.130,0.215,0.201,0.209,0.116,0.075,south,7.9,No
2024/05/27,08:50,0.146,0.132,0.213,0.200,0.207,0.117,0.076,south,7.8,No
2024/05/27,09:00,0.148,0.131,0.215,0.201,0.204,0.116,0.074,south,5.8,No
2024/05/27,09:10,0.148,0.130,0.213,0.201,0.208,0.116,0.075,south,9.0,No
2024/05/27,09:20,0.147,0.132,0.212,0.199,0.208,0.117,0.076,south,8.4,Yes
2024/05/27,09:30,0.148,0.131,0.213,0.200,0.205,0.117,0.075,south,8.5,No
2024/05/27,09:40,0.148,0.130,0.213,0.200,0.205,0.116,0.075,south,10.0,No
2024/05/27,09:50,0.148,0.131,0.213,0.199,0.208,0.116,0.076,south,9.2,Yes
2024/05/27,10:00,0.149,0.131,0.215,0.201,0.208,0.118,0.076,south,8.7,Yes
2024/05/27,10:10,0.149,0.132,0.215,0.203,0.208,0.117,0.076,south-southwest,10.4,Yes
2024/05/27,10:20,0.148,0.132,0.214,0.200,0.208,0.118,0.077,south,7.2,Yes
2024/05/27,10:30,0.149,0.132,0.215,0.202,0.208,0.119,0.076,south-southwest,9.0,Yes
2024/05/27,10:40,0.150,0.132,0.215,0.202,0.208,0.118,0.077,south,8.1,Yes
2024/05/27,10:50,0.150,0.133,0.215,0.201,0.209,0.119,0.078,south,7.5,Yes
2024/05/27,11:00,0.150,0.133,0.217,0.204,0.208,0.119,0.078,south-southwest,10.9,Yes
2024/05/27,11:10,0.151,0.133,0.215,0.203,0.209,0.120,0.077,south,8.1,Yes
2024/05/27,11:20,0.149,0.133,0.217,0.202,0.210,0.119,0.078,south-southwest,9.8,No
2024/05/27,11:30,0.151,0.131,0.216,0.202,0.207,0.118,0.077,south,9.2,No
2024/05/27,11:40,0.150,0.132,0.214,0.201,0.210,0.117,0.077,south,8.3,No
2024/05/27,11:50,0.148,0.132,0.216,0.201,0.209,0.118,0.076,south,7.9,No
2024/05/27,12:00,0.147,0.132,0.214,0.201,0.207,0.118,0.076,south,6.6,No
2024/05/27,12:10,0.149,0.131,0.212,0.199,0.204,0.117,0.075,south-southeast,6.0,No
2024/05/27,12:20,0.149,0.132,0.211,0.197,0.206,0.118,0.076,south-southwest,6.9,No
2024/05/27,12:30,0.148,0.132,0.213,0.200,0.208,0.118,0.076,south,8.7,No
2024/05/27,12:40,0.147,0.131,0.216,0.202,0.208,0.118,0.076,south-southwest,9.2,No
2024/05/27,12:50,0.147,0.131,0.214,0.201,0.207,0.117,0.075,south,7.9,No
2024/05/27,13:00,0.148,0.130,0.212,0.198,0.207,0.116,0.075,south-southeast,7.9,No
2024/05/27,13:10,0.149,0.130,0.212,0.199,0.205,0.117,0.076,south,10.4,No
2024/05/27,13:20,0.148,0.131,0.213,0.201,0.205,0.117,0.075,south,10.7,No
2024/05/27,13:30,0.146,0.132,0.215,0.201,0.208,0.117,0.075,south,10.3,No
2024/05/27,13:40,0.149,0.130,0.214,0.200,0.209,0.116,0.075,south-southeast,7.7,No
2024/05/27,13:50,0.149,0.130,0.213,0.198,0.208,0.117,0.075,south,9.3,No
2024/05/27,14:00,0.148,0.130,0.212,0.199,0.206,0.118,0.076,south,9.8,No
2024/05/27,14:10,0.148,0.129,0.213,0.198,0.206,0.117,0.074,south,10.4,No
2024/05/27,14:20,0.148,0.130,0.214,0.199,0.208,0.117,0.075,south,9.6,No
2024/05/27,14:30,0.148,0.131,0.213,0.198,0.206,0.116,0.075,south,10.3,No
2024/05/27,14:40,0.147,0.130,0.212,0.199,0.208,0.116,0.075,south,9.5,No
2024/05/27,14:50,0.147,0.130,0.213,0.200,0.207,0.116,0.075,south,11.5,Yes
2024/05/27,15:00,0.147,0.132,0.212,0.201,0.206,0.117,0.076,south-southeast,10.9,No
2024/05/27,15:10,0.149,0.131,0.213,0.202,0.206,0.117,0.075,south-southeast,11.4,No
2024/05/27,15:20,0.149,0.132,0.216,0.200,0.206,0.117,0.075,south-southeast,10.7,No
2024/05/27,15:30,0.148,0.130,0.215,0.200,0.209,0.117,0.075,south-southeast,11.8,No
2024/05/27,15:40,0.147,0.132,0.214,0.202,0.207,0.117,0.075,south-southeast,9.8,No
2024/05/27,15:50,0.150,0.131,0.214,0.202,0.207,0.117,0.075,south-southeast,11.1,No
2024/05/27,16:00,0.148,0.130,0.217,0.200,0.205,0.117,0.076,south-southeast,10.6,No
2024/05/27,16:10,0.147,0.130,0.215,0.200,0.208,0.116,0.075,south,10.7,No
2024/05/27,16:20,0.149,0.132,0.213,0.203,0.208,0.117,0.075,south,7.8,No
2024/05/27,16:30,0.149,0.130,0.215,0.201,0.207,0.117,0.076,south,8.1,No
2024/05/27,16:40,0.148,0.130,0.215,0.199,0.206,0.116,0.075,south-southeast,9.6,No
2024/05/27,16:50,0.147,0.131,0.214,0.200,0.205,0.116,0.074,south,10.4,No
2024/05/27,17:00,0.147,0.131,0.212,0.202,0.207,0.118,0.076,south-southeast,10.1,No
2024/05/27,17:10,0.149,0.130,0.214,0.200,0.208,0.116,0.075,south-southeast,10.6,No
2024/05/27,17:20,0.148,0.131,0.214,0.200,0.207,0.117,0.075,south-southeast,9.8,No
2024/05/27,17:30,0.149,0.131,0.212,0.201,0.206,0.117,0.076,south-southeast,10.4,No
2024/05/27,17:40,0.150,0.131,0.216,0.201,0.208,0.117,0.075,south-southeast,9.0,No
2024/05/27,17:50,0.148,0.131,0.214,0.201,0.207,0.117,0.076,south,9.8,No
2024/05/27,18:00,0.149,0.130,0.214,0.202,0.207,0.118,0.075,south-southeast,9.2,No
2024/05/27,18:10,0.149,0.131,0.215,0.198,0.209,0.116,0.075,south-southeast,8.1,No
2024/05/27,18:20,0.147,0.132,0.212,0.201,0.206,0.117,0.075,south-southeast,8.7,No
2024/05/27,18:30,0.149,0.131,0.216,0.201,0.209,0.117,0.075,south-southeast,9.2,No
2024/05/27,18:40,0.149,0.131,0.213,0.200,0.207,0.116,0.076,south-southeast,9.6,No
2024/05/27,18:50,0.148,0.131,0.215,0.203,0.206,0.117,0.075,south-southeast,8.4,No
2024/05/27,19:00,0.149,0.131,0.214,0.201,0.208,0.117,0.075,south,9.6,No
2024/05/27,19:10,0.148,0.131,0.213,0.201,0.207,0.117,0.074,south,8.7,No
2024/05/27,19:20,0.148,0.130,0.215,0.200,0.208,0.117,0.075,south,10.9,No
2024/05/27,19:30,0.149,0.131,0.213,0.201,0.208,0.116,0.076,south,10.4,No
2024/05/27,19:40,0.147,0.130,0.215,0.201,0.206,0.117,0.076,south-southwest,10.3,No
2024/05/27,19:50,0.149,0.131,0.214,0.199,0.209,0.117,0.076,south,10.4,No
2024/05/27,20:00,0.147,0.131,0.212,0.201,0.206,0.117,0.075,south,11.2,No
2024/05/27,20:10,0.148,0.131,0.215,0.202,0.207,0.118,0.076,south-southwest,9.2,No
2024/05/27,20:20,0.149,0.132,0.212,0.200,0.208,0.116,0.075,south-southwest,8.1,No
2024/05/27,20:30,0.147,0.130,0.216,0.202,0.206,0.117,0.075,south,8.4,No
2024/05/27,20:40,0.149,0.131,0.214,0.200,0.208,0.117,0.076,south,7.0,No
2024/05/27,20:50,0.148,0.131,0.214,0.200,0.208,0.116,0.075,south-southwest,8.3,No
2024/05/27,21:00,0.148,0.130,0.214,0.201,0.207,0.116,0.075,south-southwest,7.4,No
2024/05/27,21:10,0.149,0.131,0.213,0.199,0.209,0.116,0.076,south-southwest,6.0,No
2024/05/27,21:20,0.148,0.130,0.215,0.200,0.205,0.117,0.075,south,5.4,No
2024/05/27,21:30,0.149,0.131,0.213,0.202,0.207,0.116,0.076,south,4.3,No
2024/05/27,21:40,0.147,0.131,0.213,0.200,0.206,0.117,0.076,south,6.0,No
2024/05/27,21:50,0.149,0.131,0.214,0.201,0.205,0.116,0.076,south-southwest,5.3,No
2024/05/27,22:00,0.149,0.131,0.213,0.200,0.209,0.117,0.076,south-southwest,5.3,No
2024/05/27,22:10,0.148,0.131,0.215,0.202,0.206,0.117,0.075,south-southwest,4.5,No
2024/05/27,22:20,0.149,0.131,0.213,0.202,0.207,0.117,0.076,south-southwest,4.3,No
2024/05/27,22:30,0.148,0.131,0.215,0.200,0.208,0.117,0.075,south,4.0,No
2024/05/27,22:40,0.149,0.131,0.214,0.202,0.205,0.116,0.075,south,2.8,No
2024/05/27,22:50,0.149,0.132,0.214,0.200,0.208,0.117,0.075,south,3.4,No
2024/05/27,23:00,0.147,0.132,0.214,0.200,0.207,0.118,0.074,south-southwest,3.9,No
2024/05/27,23:10,0.149,0.131,0.213,0.201,0.206,0.116,0.075,south,2.7,No
2024/05/27,23:20,0.149,0.131,0.215,0.199,0.208,0.118,0.075,south-southwest,2.5,No
2024/05/27,23:30,0.148,0.131,0.212,0.202,0.207,0.117,0.076,south-southwest,2.6,No
2024/05/27,23:40,0.149,0.131,0.215,0.200,0.208,0.117,0.075,south,3.0,No
2024/05/27,23:50,0.148,0.132,0.213,0.200,0.207,0.118,0.075,south,3.1,No
